Flag for USA

Past Weather in Mesquite, Texas, USA — Yesterday and Last 2 Weeks

Now
76 °F

Clear.


Feels Like: 74 °F
Forecast: 96 / 76 °F
Wind: No wind

Location: Mesquite Metro Airport

Current Time: Jul 5, 2020 at 4:51:57 am

Latest Report: Jul 5, 2020 at 4:15 am


Visibility: 2 mi

Pressure: 29.85 "Hg

Humidity: 98%

Dew Point: 75 °F

Location of MesquiteLocation

Past Weather in Mesquite — Graph

°F

Mesquite Temperature Yesterday

Maximum temperature yesterday: 93 °F (at 1:50 pm)
Minimum temperature yesterday: 71 °F (at 6:15 am)
Average temperature yesterday: 80 °F

High & Low Weather Summary for the Past Weeks

 TemperatureHumidityPressure
High97 °F (Jul 3, 3:50 pm)100% (Jun 20, 3:15 am)30.07 "Hg (Jun 20, 3:15 am)
Low65 °F (Jun 20, 3:15 am)34% (Jul 3, 3:50 pm)29.76 "Hg (Jun 28, 7:50 pm)
Average79 °F81%29.91 "Hg
* Reported Jun 20 3:15 am — Jul 5 3:35 am, Mesquite. Weather by CustomWeather, © 2020

Note: Actual official high and low records may vary slightly from our data, if they occured in-between our weather recording intervals... More about our weather records

Mesquite Weather History for the Previous 24 Hours

Scroll right to see more
 ConditionsComfort  
Time TempWeatherWind HumidityBarometerVisibility
3:35 am
Sun, Jul 5
77 °FClear.No wind96%29.85 "Hg3 mi
3:15 am77 °FClear.No wind96%29.86 "Hg4 mi
2:55 am78 °FClear.No wind95%29.85 "Hg4 mi
2:35 am78 °FClear.No wind94%29.86 "Hg4 mi
2:15 am79 °FClear.No wind92%29.85 "Hg5 mi
1:55 am78 °FClear.No wind93%29.86 "Hg5 mi
1:35 am79 °FClear.No wind90%29.86 "Hg5 mi
1:15 am80 °FClear.No wind88%29.86 "Hg7 mi
12:55 am80 °FClear.No wind84%29.86 "Hg7 mi
12:35 am81 °FClear.No wind80%29.86 "Hg7 mi
12:15 am82 °FClear.3 mph72%29.87 "Hg7 mi
11:55 pm
Sat, Jul 4
82 °FPassing clouds.5 mph71%29.87 "Hg7 mi
11:35 pm83 °FPassing clouds.5 mph68%29.88 "Hg7 mi
11:15 pm83 °FPassing clouds.5 mph69%29.87 "Hg7 mi
10:55 pm83 °FClear.5 mph70%29.88 "Hg7 mi
10:35 pm83 °FClear.3 mph68%29.87 "Hg7 mi
10:15 pm83 °FClear.3 mph68%29.86 "Hg10 mi
9:55 pm84 °FClear.3 mph66%29.85 "Hg10 mi
9:35 pm84 °FClear.5 mph67%29.85 "Hg10 mi
9:15 pm85 °FClear.3 mph69%29.84 "Hg10 mi
7:50 pm90 °FSunny.5 mph59%29.83 "Hg10 mi
6:50 pm93 °FSunny.9 mph49%29.82 "Hg10 mi
5:50 pm93 °FSunny.8 mph53%29.87 "Hg10 mi
4:50 pm91 °FPassing clouds.5 mph56%29.87 "Hg10 mi
3:50 pm91 °FPassing clouds.6 mph56%29.90 "Hg10 mi
2:50 pm90 °FScattered clouds.7 mph63%29.93 "Hg10 mi
1:50 pm93 °FSunny.5 mph53%29.94 "Hg10 mi
12:50 pm91 °FSunny.5 mph56%29.95 "Hg10 mi
11:50 am90 °FSunny.3 mph55%29.96 "Hg10 mi
10:50 am86 °FSunny.5 mph62%29.96 "Hg10 mi
9:50 am81 °FSunny.9 mph74%29.95 "Hg10 mi
8:50 am79 °FSunny.8 mph74%29.96 "Hg10 mi
7:50 am73 °FSunny.5 mph89%29.94 "Hg10 mi
6:50 am72 °FSunny.No wind94%29.95 "Hg10 mi
6:35 am71 °FSunny.No wind96%29.94 "Hg10 mi
6:15 am71 °FClear.No wind97%29.94 "Hg10 mi
5:55 am71 °FClear.3 mph96%29.93 "Hg10 mi
5:35 am71 °FClear.No wind96%29.93 "Hg10 mi
5:15 am71 °FClear.3 mph97%29.94 "Hg10 mi
4:55 am71 °FClear.3 mph97%29.94 "Hg10 mi
4:35 am72 °FClear.3 mph96%29.94 "Hg10 mi
4:15 am72 °FClear.No wind96%29.94 "Hg10 mi
Weather by CustomWeather, © 2020

See weather overview